Location: Devore Heights
(34.2372°N, 117.4156°W)
Time: 02:45:55
(UTC+00:00)

Explorer 11/Cluster Stage 4 - Pass Details

Date: 20 September 2024
Orbit: 464 x 1207 km, 28.8° (Epoch: 08 October)

Event Time Altitude Azimuth Distance (km) Brightness Sun altitude
Exits shadow 12:15:44 22° 217° (SW) 1,559 7.7 -17.4°
Maximum altitude 12:18:29 38° 164° (SSE) 1,202 7.5 -16.9°
Drops below altitude 10° 12:24:12 10° 98° (E) 2,626 10.4 -15.7°
Sets 12:27:17 0° 91° (E) 3,704 11.7 -15.1°
